FW4331 Weather Reports


time (UTC)temp
C
wind
direction
speed
KPH
gust
KPH
rain 1hr
cm
rain 24hr
cm
rain mn
cm
humidity
%
barometer
mb
20260506200012 20 217 4.8 14.5 0.00 0.58 0.58 53 1006.3
20260506194507 20 264 6.4 16.1 0.00 0.58 0.58 53 1006.4
20260506193004 20 263 8.0 19.3 0.00 0.58 0.58 52 1006.4
20260506191501 20 277 4.8 14.5 0.00 0.58 0.58 52 1006.6
20260506190058 19 239 8.0 19.3 0.00 0.58 0.58 53 1007.0
20260506184559 19 214 6.4 19.3 0.00 0.58 0.58 52 1007.1
20260506183101 18 280 6.4 19.3 0.00 0.58 0.58 53 1007.2
20260506181603 18 233 3.2 19.3 0.00 0.58 0.58 52 1007.1
20260506180049 18 207 3.2 12.9 0.00 0.58 0.58 51 1007.3
20260506174545 18 238 4.8 12.9 0.00 0.58 0.58 51 1007.5
20260506173111 17 249 4.8 22.5 0.00 0.58 0.58 51 1007.5
20260506171544 17 165 9.7 24.1 0.00 0.58 0.58 51 1007.5
20260506170052 17 249 16.1 25.7 0.00 0.58 0.58 51 1007.4
20260506164538 17 216 8.0 27.4 0.00 0.58 0.58 51 1007.5
20260506163043 17 190 11.3 20.9 0.00 0.58 0.58 50 1007.6
20260506161532 17 248 12.9 20.9 0.00 0.58 0.58 47 1007.8
20260506160034 16 264 8.0 19.3 0.00 0.58 0.58 45 1007.7
20260506154527 16 153 8.0 19.3 0.00 0.58 0.58 43 1007.8
20260506153026 16 214 12.9 25.7 0.03 0.58 0.58 40 1007.7
20260506151524 16 244 8.0 19.3 0.13 0.58 0.58 40 1008.1
20260506150022 15 204 9.7 16.1 0.15 0.58 0.58 40 1007.9
20260506144518 15 207 9.7 19.3 0.15 0.58 0.58 40 1008.1
20260506143023 15 210 3.2 16.1 0.18 0.56 0.56 40 1008.3
20260506141513 15 221 4.8 17.7 0.15 0.46 0.46 40 1008.4
20260506140017 15 217 3.2 11.3 0.20 0.43 0.43 41 1008.4
20260506134507 15 240 1.6 12.9 0.36 0.43 0.43 41 1008.5
20260506133005 15 248 3.2 12.9 0.36 0.38 0.38 42 1008.2
20260506131600 15 200 4.8 14.5 0.30 0.33 0.33 45 1008.6
20260506130120 15 217 4.8 14.5 0.20 0.23 0.23 50 1008.8
20260506124551 15 164 3.2 9.7 0.08 0.08 0.08 53 1008.9
20260506123048 16 256 0.0 6.4 0.03 0.03 0.03 56 1008.2
20260506121543 16 253 1.6 11.3 0.03 0.03 0.03 60 1008.2
20260506120038 16 210 1.6 11.3 0.03 0.03 0.03 61 1008.1
20260506114539 -17 0.0 0.0 0.00 0.00 0.00 1008.5
20260506113027 -17 0.0 0.0 0.00 0.00 0.00 1008.4
20260506111522 -17 0.0 0.0 0.00 0.00 0.00 1008.1
20260506110017 -17 0.0 0.0 0.00 0.00 0.00 1007.8
20260506104527 -17 0.0 0.0 0.00 0.00 0.00 1007.8
20260506103007 -17 0.0 0.0 0.00 0.00 0.00 1007.4
20260506101601 17 219 3.2 12.9 0.00 0.00 0.00 56 1007.6
20260506100057 18 222 3.2 12.9 0.00 0.00 0.00 55 1007.5
20260506094555 18 209 4.8 17.7 0.00 0.00 0.00 54 1007.5
20260506093051 18 204 3.2 16.1 0.00 0.00 0.00 54 1007.7
20260506091547 18 235 11.3 20.9 0.00 0.00 0.00 53 1007.6
20260506090047 18 249 9.7 22.5 0.00 0.00 0.00 53 1007.9
20260506084539 18 266 4.8 17.7 0.00 0.00 0.00 52 1008.1
20260506083041 18 200 3.2 27.4 0.00 0.00 0.00 52 1008.1
20260506081533 19 243 8.0 19.3 0.00 0.00 0.00 51 1008.0
20260506073020 19 266 3.2 19.3 0.00 0.00 0.00 49 1007.9
20260506071520 19 231 8.0 19.3 0.00 0.00 0.00 49 1007.9
20260506061601 20 150 1.6 20.9 0.00 0.00 0.00 46 1008.6
20260506044541 21 181 6.4 20.9 0.00 0.00 0.00 42 1009.1
20260506043048 21 224 3.2 16.1 0.00 0.00 0.00 41 1009.0
20260506041539 21 187 6.4 19.3 0.00 0.00 0.00 41 1008.9
20260506040044 21 261 3.2 20.9 0.00 0.00 0.00 41 1008.9
20260506034532 20 223 0.0 12.9 0.00 0.00 0.00 41 1008.9
20260506033029 21 235 1.6 11.3 0.00 0.00 0.00 40 1009.0
20260506031527 20 231 1.6 12.9 0.00 0.00 0.00 39 1009.0
20260506030025 21 226 0.0 11.3 0.00 0.00 0.00 38 1008.9
20260506024533 21 224 3.2 12.9 0.00 0.00 0.00 37 1009.1
20260506023022 21 231 3.2 8.0 0.00 0.00 0.00 35 1008.9
20260506021538 21 238 0.0 9.7 0.00 0.00 0.00 34 1009.0
20260506020018 21 224 3.2 11.3 0.00 0.00 0.00 33 1009.1
20260506014523 22 233 0.0 8.0 0.00 0.00 0.00 32 1008.9
20260506013014 22 186 3.2 11.3 0.00 0.00 0.00 29 1008.7
20260506011521 23 201 3.2 11.3 0.00 0.00 0.00 28 1008.6
20260506010012 23 219 4.8 19.3 0.00 0.00 0.00 27 1008.4
20260506004508 23 262 4.8 16.1 0.00 0.00 0.00 27 1008.2
20260506003007 23 254 4.8 11.3 0.00 0.00 0.00 26 1008.1
20260506001504 24 193 1.6 16.1 0.00 0.00 0.00 24 1007.8
20260506000003 24 251 4.8 14.5 0.00 0.00 0.00 23 1007.8
20260505234503 25 219 4.8 14.5 0.00 0.00 0.00 22 1007.6
20260505233059 25 238 1.6 19.3 0.00 0.00 0.00 20 1007.6
20260505231557 26 243 14.5 24.1 0.00 0.00 0.00 18 1007.7
20260505230055 26 272 14.5 25.7 0.00 0.00 0.00 16 1007.9
20260505224554 26 236 8.0 20.9 0.00 0.00 0.00 19 1007.7
20260505223104 27 180 6.4 22.5 0.00 0.00 0.00 18 1007.6
20260505221549 27 176 12.9 32.2 0.00 0.00 0.00 17 1007.7
20260505220148 27 246 19.3 32.2 0.00 0.00 0.00 16 1007.7
20260505214553 27 215 11.3 30.6 0.00 0.00 0.00 17 1007.7
20260505213043 27 233 11.3 25.7 0.00 0.00 0.00 18 1007.5
20260505211548 28 252 11.3 35.4 0.00 0.00 0.00 18 1007.4
20260505210038 28 238 11.3 30.6 0.00 0.00 0.00 18 1007.3
20260505204537 27 219 16.1 35.4 0.00 0.00 0.00 17 1007.5
20260505203046 27 240 19.3 33.8 0.00 0.00 0.00 15 1007.4
20260505201529 27 235 14.5 37.0 0.00 0.00 0.00 17 1007.5